Location: Doux
(49.5045°N, 4.4321°E)
Time: 14:13:33
(UTC+00:00)

Cosmos 2369 - Pass Details

Date: 23 May 2024
Orbit: 837 x 856 km, 71.0° (Epoch: 18 June)

Event Time Altitude Azimuth Distance (km) Brightness Sun altitude
Rises 01:15:39 0° 325° (NW) 3,429 7.3 -16.6°
Reaches altitude 10° 01:18:19 10° 316° (NW) 2,491 6.4 -16.5°
Maximum altitude 01:23:21 33° 254° (WSW) 1,397 4.5 -16.1°
Enters shadow 01:25:36 25° 214° (SW) 1,671 4.6 -16.0°
